EW1689 Weather Reports


Display with metric or nautical units.
time (UTC)temp
F
wind
direction
speed
MPH
gust
MPH
rain 1hr
in
rain 24hr
in
rain mn
in
humidity
%
barometer
mb
20260904064517 86 0 3.0 6.0 0.00 0.00 0.00 52 1011.6
20260904063517 86 0 3.0 8.0 0.00 0.00 0.00 52 1011.5
20260904062517 86 0 5.0 8.0 0.00 0.00 0.00 52 1011.4
20260904061518 87 0 4.0 7.0 0.00 0.00 0.00 51 1011.3
20260904060517 87 0 4.0 7.0 0.00 0.00 0.00 50 1011.4
20260904055517 87 0 5.0 9.0 0.00 0.00 0.00 49 1011.4
20260904054517 88 0 4.0 6.0 0.00 0.00 0.00 48 1011.3
20260904053557 88 0 4.0 8.0 0.00 0.00 0.00 46 1011.2
20260904052518 88 0 2.0 5.0 0.00 0.00 0.00 45 1011.3
20260904051517 88 0 2.0 5.0 0.00 0.00 0.00 45 1011.2
20260904050517 88 0 3.0 6.0 0.00 0.00 0.00 44 1011.1
20260904045517 88 0 2.0 4.0 0.00 0.00 0.00 44 1011.0
20260904044518 88 0 2.0 5.0 0.00 0.00 0.00 44 1011.0
20260904043517 88 0 2.0 4.0 0.00 0.00 0.00 44 1010.8
20260904042517 88 0 1.0 6.0 0.00 0.00 0.00 43 1010.7
20260904041517 89 0 2.0 4.0 0.00 0.00 0.00 43 1010.8
20260904040517 89 0 2.0 4.0 0.00 0.00 0.00 43 1010.6
20260904035517 89 0 2.0 5.0 0.00 0.00 0.00 42 1010.3
20260904034517 89 0 2.0 5.0 0.00 0.00 0.00 42 1010.2
20260904033517 89 0 2.0 4.0 0.00 0.00 0.00 43 1010.1
20260904032557 89 0 2.0 5.0 0.00 0.00 0.00 43 1010.1
20260904031517 89 0 3.0 7.0 0.00 0.00 0.00 42 1009.9
20260904030517 89 0 1.0 4.0 0.00 0.00 0.00 42 1009.8
20260904025538 89 0 2.0 4.0 0.00 0.00 0.00 41 1009.5
20260904024517 90 0 3.0 6.0 0.00 0.00 0.00 41 1009.5
20260904023517 90 0 3.0 6.0 0.00 0.00 0.00 42 1009.5
20260904022516 90 0 4.0 8.0 0.00 0.00 0.00 42 1009.3
20260904021517 91 0 5.0 10.0 0.00 0.00 0.00 41 1009.3
20260904020516 93 0 6.0 10.0 0.00 0.00 0.00 38 1009.4
20260904015517 93 0 1.0 3.0 0.00 0.00 0.00 34 1009.0
20260904014517 94 0 1.0 2.0 0.00 0.00 0.00 34 1009.0
20260904013517 94 0.0 1.0 0.00 0.00 0.00 34 1009.2
20260904012517 94 0.0 0.0 0.00 0.00 0.00 33 1009.1
20260904011516 94 0.0 1.0 0.00 0.00 0.00 33 1009.1
20260904010516 94 0.0 1.0 0.00 0.00 0.00 33 1009.1
20260904005517 95 0.0 3.0 0.00 0.00 0.00 33 1009.3
20260904004516 95 0 1.0 3.0 0.00 0.00 0.00 32 1009.3
20260904003517 95 0 1.0 3.0 0.00 0.00 0.00 32 1009.3
20260904002517 95 0 2.0 5.0 0.00 0.00 0.00 32 1009.3
20260904001516 96 0 2.0 4.0 0.00 0.00 0.00 31 1009.3
20260904000517 96 0 1.0 3.0 0.00 0.00 0.00 31 1009.5
20260903235517 96 180 3.0 7.0 0.00 0.00 0.00 31 1009.5
20260903234516 96 203 2.0 6.0 0.00 0.00 0.00 30 1009.6
20260903233516 96 180 1.0 5.0 0.00 0.00 0.00 32 1009.7
20260903232516 96 180 1.0 3.0 0.00 0.00 0.00 32 1009.8
20260903231516 96 158 3.0 8.0 0.00 0.00 0.00 30 1009.8
20260903230516 96 158 3.0 8.0 0.00 0.00 0.00 31 1009.9
20260903225516 97 135 3.0 7.0 0.00 0.00 0.00 29 1010.1
20260903224517 98 45 2.0 6.0 0.00 0.00 0.00 29 1010.4
20260903223536 99 180 2.0 5.0 0.00 0.00 0.00 28 1010.5
20260903222516 99 0 1.0 5.0 0.00 0.00 0.00 28 1010.6
20260903221516 98 0 2.0 7.0 0.00 0.00 0.00 27 1010.7
20260903220516 99 0 2.0 9.0 0.00 0.00 0.00 27 1010.8
20260903215516 98 0 2.0 7.0 0.00 0.00 0.00 30 1010.9
20260903214516 97 0 3.0 9.0 0.00 0.00 0.00 30 1011.0
20260903213556 98 0 1.0 4.0 0.00 0.00 0.00 30 1011.3
20260903212516 97 0 1.0 3.0 0.00 0.00 0.00 29 1011.4
20260903211516 97 0 3.0 12.0 0.00 0.00 0.00 30 1011.6
20260903210516 97 0 3.0 7.0 0.00 0.00 0.00 31 1011.8
20260903205536 97 0 1.0 4.0 0.00 0.00 0.00 30 1011.9
20260903204516 96 0 3.0 9.0 0.00 0.00 0.00 29 1012.0
20260903203516 95 0 2.0 6.0 0.00 0.00 0.00 30 1011.9
20260903202516 95 0 4.0 7.0 0.00 0.00 0.00 33 1012.1
20260903201516 94 0 4.0 11.0 0.00 0.00 0.00 36 1012.1
20260903200536 94 0 2.0 7.0 0.00 0.00 0.00 34 1012.2
20260903195956 94 0 6.0 11.0 0.00 0.00 0.00 35 1012.4
20260903194538 94 0 2.0 5.0 0.00 0.00 0.00 36 1012.6
20260903193536 95 0 5.0 9.0 0.00 0.00 0.00 35 1012.7
20260903192516 95 0 3.0 7.0 0.00 0.00 0.00 38 1012.8
20260903191515 94 0 2.0 5.0 0.00 0.00 0.00 38 1013.0
20260903190516 94 0 3.0 7.0 0.00 0.00 0.00 39 1013.2
20260903185516 93 0 4.0 9.0 0.00 0.00 0.00 41 1013.4
20260903184516 93 0 3.0 7.0 0.00 0.00 0.00 41 1013.5
20260903183515 93 0 4.0 8.0 0.00 0.00 0.00 42 1013.8
20260903182515 91 0 3.0 7.0 0.00 0.00 0.00 44 1013.7
20260903181516 92 0 3.0 9.0 0.00 0.00 0.00 42 1014.0
20260903180536 92 0 2.0 7.0 0.00 0.00 0.00 44 1014.2
20260903175516 91 0 4.0 11.0 0.00 0.00 0.00 44 1014.3
20260903174515 91 0 3.0 8.0 0.00 0.00 0.00 45 1014.4
20260903173515 91 0 3.0 10.0 0.00 0.00 0.00 46 1014.5
20260903172515 91 0 2.0 7.0 0.00 0.00 0.00 47 1014.5
20260903171516 91 0 1.0 3.0 0.00 0.00 0.00 46 1014.5
20260903170515 91 0 2.0 4.0 0.00 0.00 0.00 45 1014.5
20260903165516 91 0 2.0 5.0 0.00 0.00 0.00 44 1014.5
20260903164518 91 0 1.0 2.0 0.00 0.00 0.00 44 1014.7
20260903163517 89 0 1.0 6.0 0.00 0.00 0.00 45 1014.7
20260903162518 88 0 1.0 2.0 0.00 0.00 0.00 48 1014.6
20260903161517 88 0 2.0 5.0 0.00 0.00 0.00 46 1014.6
20260903160517 88 0 2.0 6.0 0.00 0.00 0.00 47 1014.6
20260903155517 88 0 1.0 2.0 0.00 0.00 0.00 47 1014.6
20260903154517 87 0 2.0 4.0 0.00 0.00 0.00 48 1014.6
20260903153517 87 0 1.0 5.0 0.00 0.00 0.00 49 1014.6
20260903152517 86 0 2.0 6.0 0.00 0.00 0.00 51 1014.6
20260903151517 86 0 1.0 3.0 0.00 0.00 0.00 50 1014.6
20260903150517 85 0 2.0 4.0 0.00 0.00 0.00 51 1014.6
20260903145517 86 0 2.0 5.0 0.00 0.00 0.00 53 1014.6
20260903144517 85 0.0 2.0 0.00 0.00 0.00 53 1014.6
20260903143537 83 0.0 0.0 0.00 0.00 0.00 55 1014.6
20260903142537 82 0.0 0.0 0.00 0.00 0.00 58 1014.4
20260903141518 81 0.0 0.0 0.00 0.00 0.00 57 1014.3
20260903140517 82 0.0 0.0 0.00 0.00 0.00 56 1014.2
20260903135537 82 0.0 0.0 0.00 0.00 0.00 60 1014.0
20260903134517 81 0.0 0.0 0.00 0.00 0.00 61 1013.9
20260903133517 81 0.0 0.0 0.00 0.00 0.00 60 1013.8
20260903132517 81 0.0 0.0 0.00 0.00 0.00 60 1013.6
20260903131517 81 0.0 0.0 0.00 0.00 0.00 60 1013.6
20260903130538 81 0.0 0.0 0.00 0.00 0.00 60 1013.5
20260903125517 81 0.0 0.0 0.00 0.00 0.00 59 1013.5
20260903124517 81 0.0 0.0 0.00 0.00 0.00 58 1013.6
20260903123517 81 0.0 0.0 0.00 0.00 0.00 56 1013.5
20260903122537 82 0.0 1.0 0.00 0.00 0.00 56 1013.3
20260903121517 82 0.0 2.0 0.00 0.00 0.00 57 1013.4
20260903120517 82 0.0 1.0 0.00 0.00 0.00 56 1013.3
20260903115537 82 0.0 1.0 0.00 0.00 0.00 56 1013.2
20260903114516 82 0.0 2.0 0.00 0.00 0.00 54 1013.3
20260903113617 83 0.0 2.0 0.00 0.00 0.00 52 1013.2
20260903112517 83 0 1.0 3.0 0.00 0.00 0.00 51 1013.2
20260903111517 83 0 1.0 8.0 0.00 0.00 0.00 50 1013.1
20260903110517 83 0 1.0 2.0 0.00 0.00 0.00 49 1013.1
20260903105536 84 0 1.0 3.0 0.00 0.00 0.00 47 1013.1
20260903104537 84 0 1.0 4.0 0.00 0.00 0.00 45 1013.0
20260903103537 84 0 1.0 3.0 0.00 0.00 0.00 44 1013.1
20260903102516 84 0.0 3.0 0.00 0.00 0.00 41 1013.1
20260903101516 84 0 1.0 3.0 0.00 0.00 0.00 41 1013.0
20260903100517 84 0 1.0 3.0 0.00 0.00 0.00 40 1013.1
20260903095517 84 0 1.0 3.0 0.00 0.00 0.00 32 1013.1
20260903094517 84 0 3.0 5.0 0.00 0.00 0.00 38 1013.2
20260903093537 83 0 1.0 3.0 0.00 0.00 0.00 32 1013.0
20260903092516 84 0.0 1.0 0.00 0.00 0.00 30 1012.9
20260903091536 84 0.0 0.0 0.00 0.00 0.00 29 1012.7
20260903090516 83 0.0 0.0 0.00 0.00 0.00 28 1012.6
20260903085516 84 0.0 0.0 0.00 0.00 0.00 29 1012.6
20260903084516 84 0.0 1.0 0.00 0.00 0.00 29 1012.7
20260903083516 84 0.0 0.0 0.00 0.00 0.00 30 1012.8
20260903082516 84 0.0 0.0 0.00 0.00 0.00 31 1012.8
20260903081516 84 0.0 1.0 0.00 0.00 0.00 32 1012.8
20260903080536 84 0.0 0.0 0.00 0.00 0.00 33 1012.8
20260903075556 85 0.0 1.0 0.00 0.00 0.00 33 1012.8
20260903074516 85 0.0 0.0 0.00 0.00 0.00 34 1012.7
20260903073516 85 0.0 1.0 0.00 0.00 0.00 35 1012.8
20260903072516 86 0.0 0.0 0.00 0.00 0.00 35 1012.9
20260903071536 86 0.0 1.0 0.00 0.00 0.00 36 1012.8
20260903070516 87 0.0 0.0 0.00 0.00 0.00 37 1012.8
20260903065516 87 0.0 0.0 0.00 0.00 0.00 37 1012.6